Regional Weather Roundup
Issued by NWS

Home | Current Version | Previous Version | Text Only | Print | Product List | Glossary Off
Versions: 1 2 3 4 5 6 7 8 9 10 11 12 13 14 15 16 17 18 19 20 21 22 23 24 25 26 27 28 29 30 31 32 33 34 35 36 37 38 39 40 41 42 43 44 45 46 47 48 49 50

000
ASUS43 KFSD 282310
RWRSD

WEATHER ROUNDUP FOR SOUTH DAKOTA
NATIONAL WEATHER SERVICE SIOUX FALLS SD
600 PM CDT TUE MAR 28 2017

NOTE: "FAIR" INDICATES FEW OR NO CLOUDS BELOW 12,000 FEET WITH NO
SIGNIFICANT WEATHER AND/OR OBSTRUCTIONS TO VISIBILITY.


SDZ001>005-009-010-012>017-290000-
NORTHWEST AND NORTH CENTRAL SOUTH DAKOTA

CITY           SKY/WX    TMP DP  RH WIND       PRES   REMARKS
BUFFALO          N/A     51  38  60 SE9G16    29.99R
FAITH            N/A     47  44  90 MISG      30.07R
MOBRIDGE       CLOUDY    58  36  43 SE9       30.07R
$$

SDZ012>016-024>037-041>051-057-063-072>074-290000-
SOUTHWEST AND SOUTH CENTRAL SOUTH DAKOTA

CITY           SKY/WX    TMP DP  RH WIND       PRES   REMARKS
RAPID CTY ARPT CLOUDY    45  42  89 VRB3      30.06R
PIERRE         CLOUDY    53  42  66 W9        30.08R
CUSTER         CLOUDY    39  36  89 NE5       30.04R FOG
ELLSWORTH AFB  CLOUDY    45  45 100 CALM      30.05
PHILIP         LGT RAIN  47  46  97 E10       30.09R FOG
PINE RIDGE     LGT RAIN  44  42  93 E9        30.06R
SPEARFISH      FAIR      48  37  66 SE10      30.05R
WINNER         LGT RAIN  50  46  86 SW5       30.09R
$$

SDZ004>011-016>023-039-040-290000-
NORTHEAST SOUTH DAKOTA

CITY           SKY/WX    TMP DP  RH WIND       PRES   REMARKS
ABERDEEN       CLOUDY    58  31  35 E10       30.11R
WATERTOWN      CLOUDY    56  35  45 E10       30.11S
SISSETON         N/A     58  39  49 S5        30.13R
$$

SDZ017-020-022-023-036>040-048>070-290000-
SOUTHEAST SOUTH DAKOTA

CITY           SKY/WX    TMP DP  RH WIND       PRES   REMARKS
SIOUX FALLS    CLOUDY    60  38  43 E14       30.08S
HURON          MOSUNNY   59  36  42 E8        30.09R
CHAMBERLAIN    CLOUDY    58  36  42 E9        30.08R
MITCHELL       CLOUDY    60  36  40 E13       30.09R
YANKTON        CLOUDY    57  37  47 E16       30.07R
$$

ABBREVIATIONS USED IN REMARKS
   TC - TEMPERATURE IN CELSIUS
  WCI - WIND CHILL INDEX
   HX - HEAT INDEX
  VSB - VISIBILITY




USA.gov is the U.S. government's official web portal to all federal, state and local government web resources and services.